Location: *
(53.9002°N, 27.5624°E)
Time: 00:58:57
(UTC+00:00)

GEOS 3 Rocket - Pass Details

Date: 12 November 2019
Orbit: 786 x 833 km, 115.0° (Epoch: 05 December)

Event Time Altitude Azimuth Distance (km) Brightness Sun altitude
Exits shadow 17:17:33 37° 14° (NNE) 1,248 4.5 -26.5°
Maximum altitude 17:19:03 47° 330° (NNW) 1,065 4.4 -26.7°
Drops below altitude 10° 17:24:03 10° 258° (WSW) 2,414 6.9 -27.5°
Sets 17:26:26 0° 253° (WSW) 3,351 7.8 -27.8°
